TimeMST,TemperatureF,Dew PointF,Humidity,Sea Level PressureIn,VisibilityMPH,Wind Direction,Wind SpeedMPH,Gust SpeedMPH,PrecipitationIn,Events,Conditions,WindDirDegrees,DateUTC
12:54 AM,24.1,10.0,55,30.33,10.0,Calm,Calm,-,N/A,,Clear,0,2013-03-01 07:54:00
1:54 AM,23.0,10.9,60,30.33,10.0,North,4.6,-,N/A,,Clear,10,2013-03-01 08:54:00
3:54 AM,25.0,12.9,60,30.32,10.0,North,10.4,-,N/A,,Clear,360,2013-03-01 10:54:00
4:54 AM,24.8,14.0,64,30.24,10.0,NNE,13.8,-,N/A,,Partly Cloudy,20,2013-03-01 11:54:00
5:54 AM,26.1,12.0,55,30.38,10.0,West,5.8,-,N/A,,Clear,280,2013-03-01 12:54:00
6:54 AM,25.0,12.0,58,30.41,10.0,WNW,9.2,-,N/A,,Partly Cloudy,300,2013-03-01 13:54:00
7:54 AM,28.0,12.9,53,30.41,10.0,West,6.9,-,N/A,,Scattered Clouds,280,2013-03-01 14:54:00
8:54 AM,30.9,14.0,50,30.41,10.0,WSW,4.6,-,N/A,,Scattered Clouds,240,2013-03-01 15:54:00
9:54 AM,34.0,15.1,46,30.40,10.0,South,8.1,-,N/A,,Scattered Clouds,190,2013-03-01 16:54:00
10:54 AM,36.0,16.0,44,30.38,10.0,South,8.1,-,N/A,,Scattered Clouds,180,2013-03-01 17:54:00
11:54 AM,37.0,15.1,41,30.38,10.0,South,8.1,-,N/A,,Scattered Clouds,190,2013-03-01 18:54:00
12:54 PM,39.0,16.0,39,30.37,10.0,South,6.9,-,N/A,,Scattered Clouds,180,2013-03-01 19:54:00
1:54 PM,39.0,17.1,41,30.35,10.0,South,5.8,-,N/A,,Scattered Clouds,180,2013-03-01 20:54:00
2:54 PM,39.9,17.1,40,30.34,10.0,South,5.8,-,N/A,,Scattered Clouds,190,2013-03-01 21:54:00
3:54 PM,41.0,17.1,38,30.32,10.0,South,5.8,-,N/A,,Partly Cloudy,170,2013-03-01 22:54:00
4:54 PM,39.9,17.1,40,30.34,10.0,ESE,4.6,-,N/A,,Partly Cloudy,120,2013-03-01 23:54:00
5:54 PM,37.0,19.0,48,30.38,10.0,East,4.6,-,N/A,,Partly Cloudy,100,2013-03-02 00:54:00
6:54 PM,37.9,18.0,45,30.41,10.0,Calm,Calm,-,N/A,,Partly Cloudy,0,2013-03-02 01:54:00
7:54 PM,33.1,19.0,56,30.43,10.0,West,4.6,-,N/A,,Clear,270,2013-03-02 02:54:00
8:54 PM,34.0,18.0,52,30.42,10.0,Calm,Calm,-,N/A,,Clear,0,2013-03-02 03:54:00
9:54 PM,34.0,17.1,50,30.41,10.0,Calm,Calm,-,N/A,,Clear,0,2013-03-02 04:54:00
10:54 PM,30.9,17.1,57,30.40,10.0,SSE,6.9,-,N/A,,Clear,160,2013-03-02 05:54:00
11:54 PM,32.0,16.0,52,30.39,10.0,ESE,3.5,-,N/A,,Clear,120,2013-03-02 06:54:00